| time (UTC) | temp C | wind direction | speed KPH | gust KPH | rain 1hr cm | rain 24hr cm | rain mn cm | humidity % | barometer mb |
| 20260509000728 | 28 | 126 | 9.7 | 0.0 | 0.00 | 0.00 | 0.00 | 81 | 1012.0 |
| 20260508233723 | 28 | 124 | 9.7 | 0.0 | 0.00 | 0.00 | 0.00 | 81 | 1012.0 |
| 20260508230723 | 27 | 125 | 9.7 | 0.0 | 0.00 | 0.00 | 0.00 | 79 | 1012.0 |
| 20260508223723 | 27 | 125 | 9.7 | 0.0 | 0.00 | 0.00 | 0.00 | 86 | 1012.0 |
| 20260508220723 | 27 | 131 | 9.7 | 0.0 | 0.00 | 0.00 | 0.00 | 81 | 1011.0 |
| 20260508213724 | 27 | 131 | 9.7 | 0.0 | 0.00 | 0.00 | 0.00 | 85 | 1011.0 |
| 20260508210723 | 26 | 126 | 9.7 | 0.0 | 0.00 | 0.00 | 0.00 | 76 | 1011.0 |
| 20260508203723 | 26 | 126 | 9.7 | 0.0 | 0.00 | 0.00 | 0.00 | 84 | 1011.0 |
| 20260508200724 | 26 | 136 | 11.3 | 0.0 | 0.00 | 0.00 | 0.00 | 78 | 1011.0 |
| 20260508193723 | 26 | 136 | 11.3 | 0.0 | 0.00 | 0.00 | 0.00 | 86 | 1011.0 |
| 20260508190723 | 26 | 131 | 9.7 | 0.0 | 0.00 | 0.00 | 0.00 | 79 | 1011.0 |
| 20260508183723 | 26 | 131 | 9.7 | 0.0 | 0.00 | 0.00 | 0.00 | 87 | 1011.0 |
| 20260508180723 | 27 | 145 | 8.0 | 0.0 | 0.00 | 0.00 | 0.00 | 86 | 1011.0 |
| 20260508173724 | 27 | 152 | 8.0 | 0.0 | 0.00 | 0.00 | 0.00 | 86 | 1011.0 |
| 20260508170724 | 26 | 178 | 8.0 | 0.0 | 0.00 | 0.00 | 0.00 | 81 | 1012.0 |
| 20260508163723 | 26 | 178 | 8.0 | 0.0 | 0.00 | 0.00 | 0.00 | 87 | 1012.0 |
| 20260508160728 | 26 | 167 | 8.0 | 0.0 | 0.00 | 0.00 | 0.00 | 82 | 1012.0 |
| 20260508153723 | 27 | 167 | 8.0 | 0.0 | 0.00 | 0.00 | 0.00 | 89 | 1013.0 |
| 20260508150723 | 27 | 168 | 6.4 | 0.0 | 0.00 | 0.00 | 0.00 | 88 | 1013.0 |
| 20260508143723 | 27 | 168 | 6.4 | 0.0 | 0.00 | 0.00 | 0.00 | 89 | 1013.0 |
| 20260508140723 | 27 | 158 | 6.4 | 0.0 | 0.00 | 0.00 | 0.00 | 88 | 1012.0 |
| 20260508133723 | 27 | 158 | 6.4 | 0.0 | 0.00 | 0.00 | 0.00 | 88 | 1012.0 |
| 20260508130723 | 27 | 136 | 4.8 | 0.0 | 0.00 | 0.00 | 0.00 | 82 | 1012.0 |
| 20260508123724 | 27 | 136 | 4.8 | 0.0 | 0.00 | 0.00 | 0.00 | 85 | 1012.0 |
| 20260508120724 | 27 | 95 | 1.6 | 0.0 | 0.00 | 0.00 | 0.00 | 81 | 1011.0 |
| 20260508113723 | 27 | 90 | 1.6 | 0.0 | 0.00 | 0.00 | 0.00 | 82 | 1011.0 |
| 20260508110723 | 27 | 353 | 3.2 | 0.0 | 0.00 | 0.00 | 0.00 | 72 | 1010.0 |
| 20260508103729 | 27 | 353 | 3.2 | 0.0 | 0.00 | 0.00 | 0.00 | 81 | 1010.0 |
| 20260508100723 | 27 | 1 | 8.0 | 0.0 | 0.00 | 0.00 | 0.00 | 72 | 1009.0 |
| 20260508093723 | 27 | 1 | 8.0 | 0.0 | 0.00 | 0.00 | 0.00 | 79 | 1009.0 |
| 20260508090723 | 28 | 356 | 16.1 | 0.0 | 0.00 | 0.00 | 0.00 | 73 | 1009.0 |
| 20260508083723 | 28 | 356 | 16.1 | 0.0 | 0.00 | 0.00 | 0.00 | 79 | 1009.0 |
| 20260508080723 | 28 | 342 | 17.7 | 0.0 | 0.00 | 0.00 | 0.00 | 77 | 1008.0 |
| 20260508073723 | 28 | 342 | 17.7 | 0.0 | 0.00 | 0.00 | 0.00 | 79 | 1009.0 |
| 20260508070723 | 29 | 331 | 22.5 | 0.0 | 0.00 | 0.00 | 0.00 | 82 | 1008.0 |
| 20260508063723 | 28 | 331 | 22.5 | 0.0 | 0.00 | 0.00 | 0.00 | 71 | 1009.0 |
| 20260508060723 | 30 | 333 | 20.9 | 0.0 | 0.00 | 0.00 | 0.00 | 73 | 1009.0 |
| 20260508053723 | 30 | 335 | 22.5 | 0.0 | 0.00 | 0.00 | 0.00 | 73 | 1009.0 |
| 20260508050723 | 29 | 345 | 17.7 | 0.0 | 0.00 | 0.00 | 0.00 | 82 | 1009.0 |
| 20260508043723 | 29 | 345 | 17.7 | 0.0 | 0.00 | 0.00 | 0.00 | 73 | 1009.0 |
| 20260508040723 | 29 | 2 | 12.9 | 0.0 | 0.00 | 0.00 | 0.00 | 88 | 1010.0 |
| 20260508033723 | 29 | 2 | 12.9 | 0.0 | 0.00 | 0.00 | 0.00 | 72 | 1010.0 |
| 20260508030723 | 28 | 21 | 11.3 | 0.0 | 0.00 | 0.00 | 0.00 | 88 | 1011.0 |
| 20260508023723 | 28 | 21 | 11.3 | 0.0 | 0.00 | 0.00 | 0.00 | 76 | 1011.0 |
| 20260508020723 | 29 | 79 | 8.0 | 0.0 | 0.00 | 0.00 | 0.00 | 90 | 1011.0 |
| 20260508013723 | 30 | 79 | 8.0 | 0.0 | 0.00 | 0.00 | 0.00 | 80 | 1012.0 |
| 20260508010723 | 28 | 124 | 9.7 | 0.0 | 0.00 | 0.00 | 0.00 | 91 | 1012.0 |
| 20260508003723 | 29 | 124 | 9.7 | 0.0 | 0.00 | 0.00 | 0.00 | 81 | 1012.0 |